HAWK-10B

导读

HAWK-10B是一颗由美国发射的人造卫星,于2024年8月16日北京时间8时成功进入太空。作为美国商业航天发射领域的最新成果,它依托成熟航天技术部署,延续了美国在小卫星领域的探索布局。该卫星的成功发射,进一步充实了美国近地轨道卫星星座规模,将为相关航天应用任务提供数据支撑,也反映出当前美国商业航天发射市场的竞争态势。

Basic Information
目录编号:
60545
目录名称:
HAWK-10B
国际标识:
2024-149CF
轨道中心:
EARTH
卫星名称:
HAWK-10B
卫星全名:
HAWK-10B
卫星状态:
在轨 (已飞行749 天)
发射日期:
2024-08-16 UTC
国别 :
美国 (US)
星等 :
--
Orbit Information
数据来源 国际轨道数据
星历时间: 2026-09-03T23:53:11+0800
1天前
查看轨道信息
半长轴: 6955.233km
偏心率: 0.0005254
轨道倾角: 97.675°
近地点辐角 175.844°
升交点赤经 320.487°
平近点角 184.283°
近地点: 573.441km
远地点: 580.751km
周期: 96.212分钟
每日圈数: 14.967017
Detailed Information
使用方式:
暂无
2D Orbit Map
3D Orbit Map
Orbit Altitude Analysis Chart
Orbit Inclination Analysis Chart
Orbit Comprehensive Analysis Chart
View Comprehensive Chart
Conjunction Data List
Event ID Objects TCA Miss Dist (km) Collision Risk Probability Collision Risk Index (CRI) Action
CDM_260905-182806-054506-326321
HAWK-10B (60545)
SOAP (63263)
2026-09-05T
18:28:31+0000
1.913 km
极远距离
3.245153E-6 低风险 0.45
CDM_260905-200406-054506-326321
HAWK-10B (60545)
SOAP (63263)
2026-09-05T
20:04:47+0000
2.443 km
极远距离
1.847427E-6 低风险 0.4
CDM_260905-165206-054506-326321
HAWK-10B (60545)
SOAP (63263)
2026-09-05T
16:52:16+0000
2.649 km
极远距离
1.604417E-6 低风险 0.39
CDM_260903-094803-992106-054523
HAWK-10B (60545)
2026-09-03T
09:48:01+0000
2.881 km
极远距离
1.435102E-6 低风险 0.38
CDM_260901-175306-054506-700522
HAWK-10B (60545)
2026-09-01T
17:53:11+0000
2.524 km
极远距离
1.147571E-6 低风险 0.36